Home   Weather   Raleigh   Past weeks

Flag for USA Past Weather in Raleigh, North Carolina, USA — Yesterday and Last 2 Weeks

Now
84 °F

Partly sunny.


Feels Like: 88 °F
Forecast: 75 / 92 °F
Wind: 8 mph from Northeast

Location: Raleigh-Durham International Airport

Current Time: Jul 25, 2017 at 11:00:08 am

Latest Report: Jul 25, 2017 at 9:51 am


Visibility: 10 mi

Pressure: 30.06 "Hg

Humidity: 61%

Dew Point: 69 °F

Location of RaleighLocation

Past Weather in Raleigh — Graph

°F

Raleigh Temperature Yesterday

Maximum temperature yesterday: 92 °F (at 4:51 pm)
Minimum temperature yesterday: 71 °F (at 2:51 am)
Average temperature yesterday: 80 °F

High & Low Weather Summary for the Past Weeks

 TemperatureHumidityPressure
High100 °F (Jul 23, 2:51 pm)97% (Jul 11, 6:51 am)30.17 "Hg (Jul 11, 6:51 am)
Low68 °F (Jul 19, 4:51 am)32% (Jul 23, 3:51 pm)29.78 "Hg (Jul 23, 4:51 pm)
Average83 °F71%30.01 "Hg
* Reported Jul 10 8:51 am — Jul 25 8:51 am, Raleigh. Weather by CustomWeather, © 2017

Note: Actual official high and low records may vary slightly from our data, if they occured in-between our weather recording intervals... More about our weather records

Advertising

Raleigh Weather History for the Previous 24 Hours

Scroll right to see more
 ConditionsComfort  
Time TempWeatherWind HumidityBarometerVisibility
8:51 am
Tue, Jul 25
83 °FPartly sunny.3 mph68%30.05 "Hg10 mi
7:51 am78 °FPartly sunny.No wind93%30.04 "Hg7 mi
6:51 am75 °FFog.No wind96%30.02 "Hg3 mi
5:51 am75 °FFog.No wind96%30.01 "Hg6 mi
4:51 am77 °FPartly cloudy.No wind94%29.99 "Hg7 mi
3:51 am77 °FPassing clouds.5 mph94%29.98 "Hg8 mi
2:51 am77 °FPassing clouds.5 mph94%29.96 "Hg9 mi
1:51 am78 °FPassing clouds.7 mph90%29.96 "Hg9 mi
12:51 am78 °FPassing clouds.9 mph90%29.95 "Hg10 mi
11:51 pm
Mon, Jul 24
79 °FPassing clouds.8 mph84%29.94 "Hg10 mi
10:51 pm79 °FPassing clouds.8 mph82%29.94 "Hg10 mi
9:51 pm80 °FPassing clouds.5 mph74%29.92 "Hg10 mi
8:51 pm82 °FPassing clouds.3 mph63%29.92 "Hg10 mi
7:51 pm84 °FPartly sunny.5 mph61%29.90 "Hg10 mi
6:51 pm90 °FScattered clouds.3 mph48%29.88 "Hg10 mi
5:51 pm91 °FScattered clouds.8 mph47%29.87 "Hg10 mi
4:51 pm92 °FScattered clouds.6 mph49%29.87 "Hg10 mi
3:51 pm90 °FBroken clouds.7 mph50%29.89 "Hg10 mi
2:51 pm90 °FBroken clouds.9 mph50%29.89 "Hg10 mi
1:51 pm89 °FBroken clouds.8 mph52%29.89 "Hg10 mi
12:51 pm88 °FPartly sunny.6 mph61%29.90 "Hg10 mi
11:51 am85 °FBroken clouds.8 mph70%29.92 "Hg10 mi
Weather by CustomWeather, © 2017

See weather overviewHow to use our weather pages